Location: *
(48.8489°N, 2.3218°E)
Time: 17:04:38
(UTC+00:00)

Nimbus 7 Rocket - Pass Details

Date: 23 August 2019
Orbit: 922 x 965 km, 99.4° (Epoch: 15 October)

Event Time Altitude Azimuth Distance (km) Brightness Sun altitude
Rises 22:38:14 0° 17° (NNE) 3,661 8.3 -27.6°
Reaches altitude 10° 22:40:43 10° 19° (NNE) 2,713 7.4 -27.8°
Maximum altitude 22:46:48 73° 104° (ESE) 1,011 4.4 -28.1°
Enters shadow 22:46:51 73° 108° (ESE) 1,012 4.3 -28.1°
